| time (UTC) | temp F | wind direction | speed MPH | gust MPH | rain 1hr in | rain 24hr in | rain mn in | humidity % | barometer mb |
| 20260506104503 | 58 | 292 | 6.0 | 14.0 | 0.00 | 0.08 | 0.00 | 70 | 1012.9 |
| 20260506104005 | 58 | 298 | 7.0 | 14.0 | 0.00 | 0.08 | 0.00 | 69 | 1013.0 |
| 20260506103511 | 58 | 304 | 4.0 | 16.0 | 0.00 | 0.08 | 0.00 | 71 | 1013.0 |
| 20260506103007 | 58 | 310 | 6.0 | 16.0 | 0.00 | 0.08 | 0.00 | 69 | 1013.0 |
| 20260506102503 | 58 | 261 | 7.0 | 14.0 | 0.00 | 0.08 | 0.00 | 71 | 1013.0 |
| 20260506102002 | 58 | 300 | 5.0 | 15.0 | 0.00 | 0.08 | 0.00 | 70 | 1013.1 |
| 20260506101508 | 58 | 251 | 7.0 | 15.0 | 0.00 | 0.08 | 0.00 | 70 | 1013.1 |
| 20260506101006 | 58 | 252 | 6.0 | 15.0 | 0.00 | 0.08 | 0.00 | 71 | 1013.1 |
| 20260506100507 | 58 | 233 | 5.0 | 15.0 | 0.00 | 0.08 | 0.00 | 73 | 1013.0 |
| 20260506100008 | 57 | 260 | 2.0 | 14.0 | 0.00 | 0.08 | 0.00 | 72 | 1013.1 |
| 20260506095503 | 57 | 246 | 6.0 | 14.0 | 0.00 | 0.08 | 0.00 | 73 | 1013.2 |
| 20260506095004 | 56 | 295 | 6.0 | 13.0 | 0.00 | 0.08 | 0.00 | 74 | 1013.2 |
| 20260506094506 | 56 | 246 | 5.0 | 17.0 | 0.00 | 0.08 | 0.00 | 73 | 1013.2 |
| 20260506094003 | 56 | 250 | 9.0 | 17.0 | 0.00 | 0.08 | 0.00 | 71 | 1013.1 |
| 20260506093507 | 56 | 254 | 6.0 | 14.0 | 0.00 | 0.08 | 0.00 | 72 | 1013.1 |
| 20260506093004 | 56 | 254 | 5.0 | 13.0 | 0.00 | 0.08 | 0.00 | 74 | 1013.0 |
| 20260506092504 | 56 | 312 | 6.0 | 15.0 | 0.00 | 0.08 | 0.00 | 72 | 1013.0 |
| 20260506092007 | 57 | 302 | 7.0 | 15.0 | 0.00 | 0.08 | 0.00 | 72 | 1012.8 |
| 20260506091514 | 57 | 269 | 6.0 | 15.0 | 0.00 | 0.08 | 0.00 | 72 | 1012.8 |
| 20260506091007 | 57 | 310 | 5.0 | 16.0 | 0.00 | 0.08 | 0.00 | 72 | 1012.8 |
| 20260506090504 | 57 | 260 | 6.0 | 16.0 | 0.00 | 0.08 | 0.00 | 71 | 1012.7 |
| 20260506090017 | 56 | 273 | 8.0 | 16.0 | 0.00 | 0.08 | 0.00 | 74 | 1012.8 |
| 20260506085503 | 56 | 248 | 6.0 | 12.0 | 0.00 | 0.08 | 0.00 | 74 | 1012.7 |
| 20260506085003 | 56 | 279 | 5.0 | 11.0 | 0.00 | 0.08 | 0.00 | 74 | 1012.7 |
| 20260506084517 | 56 | 294 | 4.0 | 11.0 | 0.00 | 0.08 | 0.00 | 76 | 1012.7 |
| 20260506084010 | 56 | 256 | 3.0 | 12.0 | 0.00 | 0.08 | 0.00 | 75 | 1012.7 |
| 20260506083504 | 56 | 273 | 4.0 | 12.0 | 0.00 | 0.08 | 0.00 | 76 | 1012.7 |
| 20260506083015 | 55 | 294 | 2.0 | 10.0 | 0.00 | 0.08 | 0.00 | 77 | 1012.7 |
| 20260506082505 | 55 | 307 | 3.0 | 13.0 | 0.00 | 0.08 | 0.00 | 77 | 1012.7 |
| 20260506082006 | 55 | 298 | 3.0 | 13.0 | 0.00 | 0.08 | 0.00 | 77 | 1012.8 |
| 20260506081510 | 55 | 283 | 6.0 | 13.0 | 0.00 | 0.08 | 0.00 | 78 | 1012.7 |
| 20260506081011 | 55 | 248 | 3.0 | 11.0 | 0.00 | 0.08 | 0.00 | 80 | 1012.7 |
| 20260506080506 | 54 | 239 | 5.0 | 11.0 | 0.00 | 0.08 | 0.00 | 82 | 1012.7 |
| 20260506073509 | 52 | 301 | 0.0 | 9.0 | 0.00 | 0.08 | 0.00 | 86 | 1012.9 |
| 20260506073023 | 52 | 272 | 1.0 | 9.0 | 0.00 | 0.08 | 0.00 | 86 | 1012.9 |
| 20260506072503 | 52 | 263 | 3.0 | 9.0 | 0.00 | 0.08 | 0.00 | 87 | 1013.0 |
| 20260506072003 | 52 | 287 | 2.0 | 5.0 | 0.00 | 0.08 | 0.00 | 88 | 1013.0 |
| 20260506071504 | 51 | 267 | 0.0 | 4.0 | 0.00 | 0.08 | 0.00 | 88 | 1013.0 |
| 20260506071004 | 51 | 267 | 0.0 | 3.0 | 0.00 | 0.08 | 0.00 | 88 | 1012.9 |
| 20260506070504 | 51 | 267 | 0.0 | 3.0 | 0.00 | 0.08 | 0.00 | 90 | 1012.9 |
| 20260506062509 | 49 | 267 | 0.0 | 0.0 | 0.00 | 0.08 | 0.00 | 92 | 1012.8 |
| 20260506062009 | 49 | 267 | 0.0 | 0.0 | 0.00 | 0.08 | 0.00 | 93 | 1012.7 |
| 20260506061528 | 49 | 267 | 0.0 | 2.0 | 0.00 | 0.08 | 0.00 | 93 | 1012.8 |
| 20260506061007 | 49 | 267 | 0.0 | 2.0 | 0.00 | 0.08 | 0.00 | 92 | 1012.7 |
| 20260506060504 | 49 | 267 | 0.0 | 1.0 | 0.00 | 0.08 | 0.00 | 93 | 1012.8 |
| 20260506051006 | 47 | 267 | 0.0 | 0.0 | 0.00 | 0.07 | 0.00 | 93 | 1012.4 |
| 20260506050510 | 47 | 267 | 0.0 | 0.0 | 0.00 | 0.07 | 0.00 | 93 | 1012.4 |
| 20260506045007 | 46 | 267 | 0.0 | 0.0 | 0.00 | 0.07 | 0.00 | 93 | 1012.3 |
| 20260506044516 | 46 | 267 | 0.0 | 0.0 | 0.00 | 0.07 | 0.00 | 92 | 1012.3 |
| 20260506044006 | 46 | 267 | 0.0 | 0.0 | 0.00 | 0.07 | 0.00 | 92 | 1012.3 |
| 20260506043507 | 47 | 267 | 0.0 | 0.0 | 0.00 | 0.07 | 0.00 | 91 | 1012.2 |
| 20260506043019 | 47 | 267 | 0.0 | 0.0 | 0.00 | 0.07 | 0.00 | 91 | 1012.4 |
| 20260506042506 | 47 | 267 | 0.0 | 0.0 | 0.00 | 0.07 | 0.00 | 91 | 1012.3 |
| 20260506042010 | 47 | 267 | 0.0 | 1.0 | 0.00 | 0.07 | 0.00 | 91 | 1012.3 |
| 20260506041534 | 47 | 267 | 0.0 | 2.0 | 0.00 | 0.07 | 0.00 | 90 | 1012.2 |
| 20260506041008 | 47 | 267 | 0.0 | 2.0 | 0.00 | 0.07 | 0.00 | 90 | 1012.2 |
| 20260506040507 | 48 | 296 | 0.0 | 2.0 | 0.00 | 0.07 | 0.00 | 90 | 1012.3 |
| 20260506040004 | 48 | 296 | 0.0 | 1.0 | 0.00 | 0.07 | 0.00 | 90 | 1012.3 |
| 20260506035506 | 48 | 296 | 0.0 | 1.0 | 0.00 | 0.07 | 0.00 | 90 | 1012.4 |
| 20260506035002 | 48 | 296 | 0.0 | 1.0 | 0.00 | 0.07 | 0.00 | 90 | 1012.4 |
| 20260506034504 | 48 | 296 | 0.0 | 0.0 | 0.00 | 0.07 | 0.00 | 90 | 1012.4 |
| 20260506034004 | 48 | 296 | 0.0 | 2.0 | 0.00 | 0.07 | 0.00 | 90 | 1012.4 |
| 20260506033506 | 48 | 296 | 0.0 | 2.0 | 0.00 | 0.07 | 0.00 | 90 | 1012.5 |
| 20260506033006 | 48 | 296 | 1.0 | 2.0 | 0.00 | 0.07 | 0.00 | 90 | 1012.5 |
| 20260506032502 | 48 | 296 | 0.0 | 2.0 | 0.00 | 0.07 | 0.00 | 91 | 1012.4 |
| 20260506032002 | 48 | 296 | 0.0 | 1.0 | 0.00 | 0.07 | 0.00 | 91 | 1012.5 |
| 20260506031502 | 48 | 296 | 0.0 | 2.0 | 0.00 | 0.07 | 0.00 | 91 | 1012.5 |
| 20260506031003 | 48 | 296 | 0.0 | 3.0 | 0.00 | 0.07 | 0.00 | 91 | 1012.5 |
| 20260506030503 | 48 | 296 | 1.0 | 5.0 | 0.00 | 0.07 | 0.00 | 91 | 1012.5 |
| 20260506030005 | 48 | 296 | 1.0 | 5.0 | 0.00 | 0.07 | 0.00 | 91 | 1012.6 |
| 20260506025504 | 48 | 294 | 1.0 | 3.0 | 0.00 | 0.07 | 0.00 | 91 | 1012.5 |
| 20260506025007 | 48 | 294 | 0.0 | 5.0 | 0.00 | 0.07 | 0.00 | 91 | 1012.4 |
| 20260506024503 | 48 | 294 | 2.0 | 5.0 | 0.00 | 0.07 | 0.00 | 92 | 1012.6 |
| 20260506024002 | 48 | 298 | 2.0 | 4.0 | 0.00 | 0.07 | 0.00 | 92 | 1012.6 |
| 20260506023502 | 48 | 297 | 0.0 | 5.0 | 0.00 | 0.07 | 0.00 | 92 | 1012.5 |
| 20260506023002 | 48 | 297 | 2.0 | 5.0 | 0.00 | 0.07 | 0.00 | 92 | 1012.4 |
| 20260506022507 | 48 | 298 | 0.0 | 5.0 | 0.00 | 0.07 | 0.00 | 92 | 1012.4 |
| 20260506022004 | 48 | 302 | 1.0 | 4.0 | 0.00 | 0.07 | 0.00 | 92 | 1012.5 |
| 20260506021504 | 49 | 273 | 0.0 | 4.0 | 0.00 | 0.07 | 0.00 | 92 | 1012.4 |
| 20260506021002 | 49 | 286 | 0.0 | 4.0 | 0.00 | 0.07 | 0.00 | 92 | 1012.4 |
| 20260506020506 | 49 | 266 | 1.0 | 4.0 | 0.00 | 0.07 | 0.00 | 92 | 1012.5 |
| 20260506020003 | 49 | 291 | 1.0 | 6.0 | 0.00 | 0.07 | 0.00 | 92 | 1012.5 |
| 20260506015503 | 49 | 291 | 2.0 | 6.0 | 0.00 | 0.07 | 0.00 | 92 | 1012.5 |
| 20260506015005 | 49 | 288 | 0.0 | 4.0 | 0.00 | 0.07 | 0.00 | 92 | 1012.5 |
| 20260506014502 | 49 | 288 | 1.0 | 6.0 | 0.00 | 0.07 | 0.00 | 93 | 1012.7 |
| 20260506014004 | 49 | 279 | 2.0 | 6.0 | 0.00 | 0.07 | 0.00 | 93 | 1012.7 |
| 20260506013504 | 49 | 276 | 0.0 | 5.0 | 0.00 | 0.07 | 0.00 | 93 | 1012.7 |
| 20260506013028 | 49 | 304 | 1.0 | 5.0 | 0.00 | 0.07 | 0.00 | 93 | 1012.7 |
| 20260506012503 | 49 | 271 | 1.0 | 3.0 | 0.00 | 0.07 | 0.00 | 93 | 1012.8 |
| 20260506012003 | 49 | 271 | 0.0 | 1.0 | 0.00 | 0.07 | 0.00 | 93 | 1012.7 |
| 20260506011521 | 49 | 271 | 0.0 | 3.0 | 0.00 | 0.07 | 0.00 | 93 | 1012.7 |
| 20260506011007 | 49 | 271 | 0.0 | 3.0 | 0.00 | 0.07 | 0.00 | 93 | 1012.7 |
| 20260506010507 | 49 | 271 | 0.0 | 2.0 | 0.00 | 0.07 | 0.00 | 93 | 1012.7 |
| 20260506010007 | 49 | 271 | 0.0 | 2.0 | 0.00 | 0.07 | 0.00 | 93 | 1012.8 |
| 20260506005503 | 49 | 271 | 0.0 | 2.0 | 0.00 | 0.07 | 0.00 | 93 | 1012.9 |
| 20260506005003 | 49 | 271 | 0.0 | 2.0 | 0.00 | 0.07 | 0.00 | 93 | 1013.0 |
| 20260506004505 | 49 | 271 | 0.0 | 0.0 | 0.00 | 0.07 | 0.00 | 92 | 1013.1 |
| 20260506004003 | 49 | 271 | 0.0 | 0.0 | 0.00 | 0.07 | 0.00 | 92 | 1013.1 |
| 20260506003504 | 49 | 271 | 0.0 | 0.0 | 0.00 | 0.07 | 0.00 | 92 | 1013.2 |
| 20260506003005 | 49 | 271 | 0.0 | 0.0 | 0.00 | 0.07 | 0.00 | 92 | 1013.2 |
| 20260506002504 | 49 | 271 | 0.0 | 1.0 | 0.00 | 0.07 | 0.00 | 92 | 1013.2 |
| 20260506002007 | 49 | 271 | 0.0 | 1.0 | 0.00 | 0.08 | 0.00 | 92 | 1013.3 |
| 20260506001503 | 49 | 271 | 0.0 | 0.0 | 0.00 | 0.08 | 0.00 | 92 | 1013.3 |
| 20260506001003 | 49 | 271 | 0.0 | 0.0 | 0.00 | 0.08 | 0.00 | 92 | 1013.3 |
| 20260506000504 | 49 | 271 | 0.0 | 0.0 | 0.00 | 0.08 | 0.00 | 92 | 1013.4 |
| 20260506000019 | 49 | 271 | 0.0 | 2.0 | 0.00 | 0.08 | 0.00 | 92 | 1013.4 |
| 20260505235503 | 49 | 271 | 0.0 | 2.0 | 0.00 | 0.08 | 0.00 | 92 | 1013.4 |
| 20260505235002 | 49 | 271 | 0.0 | 2.0 | 0.00 | 0.08 | 0.00 | 92 | 1013.4 |
| 20260505234512 | 49 | 271 | 0.0 | 2.0 | 0.00 | 0.08 | 0.00 | 91 | 1013.4 |
| 20260505234007 | 49 | 271 | 0.0 | 2.0 | 0.00 | 0.08 | 0.00 | 91 | 1013.3 |
| 20260505233506 | 49 | 271 | 0.0 | 3.0 | 0.00 | 0.08 | 0.00 | 91 | 1013.3 |
| 20260505233011 | 49 | 271 | 0.0 | 4.0 | 0.00 | 0.08 | 0.00 | 91 | 1013.2 |
| 20260505232506 | 49 | 271 | 0.0 | 4.0 | 0.00 | 0.08 | 0.00 | 91 | 1013.3 |
| 20260505232007 | 49 | 267 | 0.0 | 4.0 | 0.00 | 0.08 | 0.00 | 91 | 1013.3 |
| 20260505231512 | 49 | 260 | 1.0 | 4.0 | 0.00 | 0.08 | 0.00 | 92 | 1013.4 |
| 20260505231004 | 49 | 292 | 0.0 | 5.0 | 0.00 | 0.08 | 0.00 | 92 | 1013.4 |
| 20260505230504 | 49 | 254 | 0.0 | 5.0 | 0.00 | 0.08 | 0.00 | 92 | 1013.4 |
| 20260505230026 | 49 | 266 | 0.0 | 3.0 | 0.00 | 0.08 | 0.00 | 93 | 1013.4 |
| 20260505225504 | 48 | 266 | 0.0 | 2.0 | 0.00 | 0.08 | 0.00 | 93 | 1013.4 |
| 20260505225007 | 49 | 266 | 0.0 | 2.0 | 0.00 | 0.08 | 0.00 | 93 | 1013.4 |
| 20260505224520 | 49 | 266 | 0.0 | 1.0 | 0.00 | 0.08 | 0.00 | 93 | 1013.5 |
| 20260505224009 | 49 | 266 | 0.0 | 2.0 | 0.00 | 0.08 | 0.00 | 93 | 1013.6 |
| 20260505223506 | 49 | 266 | 0.0 | 2.0 | 0.00 | 0.08 | 0.00 | 93 | 1013.6 |
| 20260505223021 | 49 | 266 | 0.0 | 2.0 | 0.00 | 0.08 | 0.00 | 93 | 1013.6 |
| 20260505222510 | 49 | 266 | 0.0 | 1.0 | 0.00 | 0.08 | 0.00 | 93 | 1013.6 |
| 20260505222003 | 49 | 266 | 0.0 | 2.0 | 0.00 | 0.08 | 0.00 | 93 | 1013.7 |
| 20260505221516 | 49 | 266 | 0.0 | 2.0 | 0.00 | 0.08 | 0.00 | 93 | 1013.7 |
| 20260505221005 | 49 | 266 | 0.0 | 2.0 | 0.00 | 0.08 | 0.00 | 92 | 1013.7 |
| 20260505220502 | 49 | 266 | 0.0 | 1.0 | 0.00 | 0.08 | 0.00 | 93 | 1013.7 |
| 20260505220028 | 49 | 266 | 0.0 | 1.0 | 0.00 | 0.08 | 0.00 | 92 | 1013.7 |
| 20260505215506 | 49 | 266 | 0.0 | 0.0 | 0.00 | 0.08 | 0.08 | 92 | 1013.8 |
| 20260505215006 | 49 | 266 | 0.0 | 0.0 | 0.00 | 0.08 | 0.08 | 91 | 1013.8 |
| 20260505214507 | 49 | 266 | 0.0 | 0.0 | 0.00 | 0.08 | 0.08 | 91 | 1013.8 |
| 20260505214007 | 49 | 266 | 0.0 | 0.0 | 0.00 | 0.08 | 0.08 | 91 | 1013.8 |
| 20260505213506 | 49 | 266 | 0.0 | 0.0 | 0.00 | 0.08 | 0.08 | 91 | 1013.8 |
| 20260505213024 | 50 | 266 | 0.0 | 0.0 | 0.00 | 0.08 | 0.08 | 91 | 1013.9 |
| 20260505212506 | 50 | 266 | 0.0 | 0.0 | 0.00 | 0.08 | 0.08 | 91 | 1013.9 |
| 20260505212008 | 50 | 266 | 0.0 | 0.0 | 0.00 | 0.08 | 0.08 | 92 | 1013.9 |
| 20260505211526 | 50 | 266 | 0.0 | 0.0 | 0.00 | 0.08 | 0.08 | 92 | 1014.0 |
| 20260505211012 | 50 | 266 | 0.0 | 0.0 | 0.00 | 0.08 | 0.08 | 92 | 1014.1 |
| 20260505210506 | 50 | 266 | 0.0 | 0.0 | 0.00 | 0.08 | 0.08 | 92 | 1014.1 |
| 20260505210022 | 50 | 266 | 0.0 | 0.0 | 0.00 | 0.08 | 0.08 | 91 | 1014.0 |
| 20260505205511 | 50 | 266 | 0.0 | 0.0 | 0.00 | 0.08 | 0.08 | 92 | 1014.0 |
| 20260505205005 | 50 | 266 | 0.0 | 1.0 | 0.00 | 0.08 | 0.08 | 92 | 1014.0 |
| 20260505204506 | 50 | 266 | 0.0 | 1.0 | 0.00 | 0.08 | 0.08 | 92 | 1014.0 |
| 20260505204008 | 50 | 266 | 0.0 | 1.0 | 0.00 | 0.08 | 0.08 | 91 | 1013.9 |
| 20260505203502 | 50 | 266 | 0.0 | 1.0 | 0.00 | 0.08 | 0.08 | 91 | 1013.9 |
| 20260505203004 | 50 | 266 | 0.0 | 1.0 | 0.00 | 0.08 | 0.08 | 91 | 1013.9 |
| 20260505202504 | 50 | 266 | 0.0 | 1.0 | 0.00 | 0.08 | 0.08 | 91 | 1013.9 |
| 20260505202004 | 50 | 266 | 0.0 | 1.0 | 0.00 | 0.08 | 0.08 | 91 | 1013.9 |
| 20260505201504 | 50 | 266 | 0.0 | 1.0 | 0.00 | 0.08 | 0.08 | 91 | 1013.8 |
| 20260505201003 | 50 | 266 | 0.0 | 0.0 | 0.00 | 0.08 | 0.08 | 90 | 1013.7 |
| 20260505200503 | 50 | 266 | 0.0 | 0.0 | 0.00 | 0.08 | 0.08 | 90 | 1013.6 |
| 20260505200014 | 50 | 266 | 0.0 | 0.0 | 0.00 | 0.08 | 0.08 | 90 | 1013.6 |
| 20260505195503 | 51 | 266 | 0.0 | 0.0 | 0.00 | 0.08 | 0.08 | 90 | 1013.5 |
| 20260505195003 | 51 | 266 | 0.0 | 0.0 | 0.00 | 0.08 | 0.08 | 89 | 1013.3 |
| 20260505194508 | 51 | 266 | 0.0 | 1.0 | 0.00 | 0.08 | 0.08 | 89 | 1013.3 |
| 20260505194007 | 51 | 266 | 0.0 | 1.0 | 0.00 | 0.08 | 0.08 | 88 | 1013.3 |
| 20260505193503 | 51 | 266 | 0.0 | 1.0 | 0.00 | 0.08 | 0.08 | 88 | 1013.2 |
| 20260505193005 | 51 | 266 | 0.0 | 0.0 | 0.00 | 0.08 | 0.08 | 87 | 1013.2 |
| 20260505192507 | 51 | 266 | 0.0 | 1.0 | 0.00 | 0.08 | 0.08 | 87 | 1013.2 |
| 20260505192002 | 52 | 266 | 0.0 | 1.0 | 0.00 | 0.08 | 0.08 | 86 | 1013.2 |
| 20260505191506 | 52 | 266 | 0.0 | 1.0 | 0.00 | 0.08 | 0.08 | 86 | 1013.2 |
| 20260505191003 | 52 | 266 | 0.0 | 1.0 | 0.00 | 0.08 | 0.08 | 86 | 1013.2 |
| 20260505190504 | 52 | 266 | 0.0 | 3.0 | 0.00 | 0.08 | 0.08 | 85 | 1013.2 |
| 20260505190005 | 52 | 266 | 0.0 | 3.0 | 0.00 | 0.08 | 0.08 | 85 | 1013.2 |
| 20260505185503 | 52 | 266 | 0.0 | 2.0 | 0.00 | 0.08 | 0.08 | 84 | 1013.2 |
| 20260505185004 | 53 | 266 | 0.0 | 3.0 | 0.00 | 0.08 | 0.08 | 84 | 1013.1 |
| 20260505184508 | 53 | 266 | 0.0 | 7.0 | 0.00 | 0.08 | 0.08 | 83 | 1013.1 |
| 20260505184002 | 53 | 266 | 1.0 | 7.0 | 0.00 | 0.08 | 0.08 | 83 | 1013.1 |
| 20260505183503 | 53 | 247 | 2.0 | 4.0 | 0.00 | 0.08 | 0.08 | 82 | 1013.1 |
| 20260505183013 | 54 | 267 | 0.0 | 4.0 | 0.00 | 0.08 | 0.08 | 81 | 1012.9 |
| 20260505182506 | 54 | 275 | 1.0 | 7.0 | 0.00 | 0.08 | 0.08 | 81 | 1012.9 |
| 20260505182003 | 54 | 277 | 0.0 | 9.0 | 0.00 | 0.08 | 0.08 | 80 | 1012.9 |
| 20260505181512 | 54 | 258 | 1.0 | 10.0 | 0.00 | 0.08 | 0.08 | 79 | 1012.9 |
| 20260505181008 | 55 | 247 | 3.0 | 11.0 | 0.00 | 0.08 | 0.08 | 77 | 1012.8 |
| 20260505180502 | 56 | 260 | 5.0 | 11.0 | 0.00 | 0.08 | 0.08 | 76 | 1012.8 |
| 20260505180008 | 56 | 314 | 3.0 | 10.0 | 0.00 | 0.08 | 0.08 | 76 | 1012.8 |
| 20260505175504 | 56 | 255 | 6.0 | 11.0 | 0.00 | 0.08 | 0.08 | 76 | 1012.8 |
| 20260505175004 | 57 | 258 | 6.0 | 11.0 | 0.00 | 0.08 | 0.08 | 75 | 1012.8 |
| 20260505174505 | 57 | 283 | 3.0 | 14.0 | 0.00 | 0.08 | 0.08 | 75 | 1012.8 |
| 20260505174005 | 57 | 304 | 7.0 | 14.0 | 0.00 | 0.08 | 0.08 | 78 | 1012.8 |
| 20260505173506 | 56 | 285 | 1.0 | 7.0 | 0.00 | 0.08 | 0.08 | 86 | 1012.9 |
| 20260505173014 | 55 | 250 | 0.0 | 8.0 | 0.00 | 0.08 | 0.08 | 85 | 1012.9 |
| 20260505172502 | 55 | 271 | 2.0 | 11.0 | 0.00 | 0.08 | 0.08 | 84 | 1012.9 |
| 20260505172005 | 55 | 264 | 2.0 | 11.0 | 0.00 | 0.08 | 0.08 | 85 | 1012.9 |
| 20260505171519 | 56 | 283 | 1.0 | 10.0 | 0.00 | 0.08 | 0.08 | 85 | 1013.0 |
| 20260505171003 | 56 | 269 | 4.0 | 10.0 | 0.00 | 0.09 | 0.08 | 84 | 1012.9 |
| 20260505170505 | 55 | 248 | 0.0 | 6.0 | 0.00 | 0.09 | 0.08 | 86 | 1012.9 |
| 20260505170019 | 55 | 237 | 0.0 | 8.0 | 0.00 | 0.09 | 0.08 | 86 | 1012.9 |
| 20260505165506 | 55 | 236 | 2.0 | 8.0 | 0.00 | 0.09 | 0.08 | 85 | 1013.0 |
| 20260505165004 | 55 | 242 | 0.0 | 9.0 | 0.00 | 0.09 | 0.08 | 84 | 1013.0 |
| 20260505164504 | 56 | 234 | 1.0 | 9.0 | 0.00 | 0.10 | 0.08 | 85 | 1013.0 |
| 20260505164003 | 56 | 233 | 0.0 | 7.0 | 0.00 | 0.10 | 0.08 | 85 | 1013.0 |
| 20260505163503 | 56 | 220 | 3.0 | 7.0 | 0.00 | 0.11 | 0.08 | 84 | 1013.0 |
| 20260505163009 | 56 | 250 | 1.0 | 7.0 | 0.00 | 0.12 | 0.08 | 84 | 1013.0 |
| 20260505162503 | 56 | 264 | 2.0 | 7.0 | 0.00 | 0.14 | 0.08 | 83 | 1013.0 |
| 20260505162007 | 56 | 255 | 1.0 | 5.0 | 0.00 | 0.16 | 0.08 | 81 | 1013.1 |
| 20260505161527 | 56 | 269 | 1.0 | 8.0 | 0.00 | 0.18 | 0.08 | 81 | 1013.0 |
| 20260505161007 | 57 | 255 | 3.0 | 8.0 | 0.00 | 0.18 | 0.08 | 80 | 1013.0 |
| 20260505160510 | 57 | 231 | 0.0 | 8.0 | 0.00 | 0.19 | 0.08 | 80 | 1013.0 |
| 20260505153013 | 57 | 226 | 0.0 | 11.0 | 0.00 | 0.22 | 0.08 | 79 | 1012.9 |
| 20260505152505 | 57 | 241 | 3.0 | 12.0 | 0.00 | 0.24 | 0.08 | 76 | 1012.9 |
| 20260505152002 | 57 | 245 | 7.0 | 12.0 | 0.00 | 0.25 | 0.08 | 79 | 1012.9 |
| 20260505151512 | 57 | 264 | 0.0 | 6.0 | 0.00 | 0.28 | 0.08 | 79 | 1012.9 |
| 20260505151006 | 57 | 234 | 1.0 | 6.0 | 0.00 | 0.29 | 0.08 | 81 | 1012.9 |
| 20260505150506 | 57 | 261 | 1.0 | 7.0 | 0.00 | 0.32 | 0.08 | 84 | 1013.1 |
| 20260505140505 | 53 | 198 | 0.0 | 6.0 | 0.01 | 0.41 | 0.08 | 91 | 1013.2 |
| 20260505125003 | 52 | 271 | 0.0 | 9.0 | 0.00 | 0.40 | 0.07 | 92 | 1013.5 |
| 20260505124509 | 52 | 256 | 2.0 | 9.0 | 0.00 | 0.40 | 0.07 | 91 | 1013.6 |
| 20260505124002 | 52 | 263 | 1.0 | 9.0 | 0.00 | 0.40 | 0.07 | 91 | 1013.5 |
| 20260505123503 | 51 | 285 | 3.0 | 15.0 | 0.00 | 0.40 | 0.07 | 90 | 1013.5 |
| 20260505123003 | 52 | 284 | 7.0 | 15.0 | 0.03 | 0.40 | 0.07 | 90 | 1013.6 |
| 20260505122503 | 52 | 278 | 6.0 | 15.0 | 0.05 | 0.40 | 0.07 | 89 | 1013.6 |
| 20260505122004 | 52 | 242 | 6.0 | 16.0 | 0.06 | 0.40 | 0.07 | 90 | 1013.6 |
| 20260505121509 | 52 | 287 | 5.0 | 16.0 | 0.06 | 0.40 | 0.07 | 91 | 1013.5 |
| 20260505121003 | 53 | 239 | 6.0 | 12.0 | 0.06 | 0.40 | 0.07 | 91 | 1013.4 |
| 20260505120502 | 53 | 283 | 2.0 | 10.0 | 0.06 | 0.40 | 0.07 | 93 | 1013.2 |
| 20260505120005 | 53 | 251 | 5.0 | 13.0 | 0.06 | 0.41 | 0.07 | 94 | 1013.2 |
| 20260505115502 | 52 | 306 | 4.0 | 13.0 | 0.06 | 0.43 | 0.07 | 93 | 1013.3 |
| 20260505115003 | 52 | 312 | 4.0 | 9.0 | 0.06 | 0.45 | 0.07 | 93 | 1013.3 |
| 20260505114503 | 52 | 248 | 4.0 | 12.0 | 0.05 | 0.45 | 0.06 | 93 | 1013.3 |
| 20260505114004 | 52 | 287 | 5.0 | 12.0 | 0.05 | 0.47 | 0.06 | 92 | 1013.3 |
| 20260505113503 | 52 | 284 | 6.0 | 12.0 | 0.05 | 0.48 | 0.06 | 92 | 1013.4 |
| 20260505113005 | 52 | 329 | 4.0 | 15.0 | 0.03 | 0.50 | 0.03 | 91 | 1013.4 |
| 20260505112505 | 52 | 323 | 8.0 | 15.0 | 0.00 | 0.51 | 0.01 | 89 | 1013.4 |
| 20260505112003 | 53 | 285 | 7.0 | 14.0 | 0.00 | 0.51 | 0.00 | 88 | 1013.4 |
| 20260505111503 | 54 | 310 | 5.0 | 14.0 | 0.00 | 0.53 | 0.00 | 86 | 1013.3 |
| 20260505111003 | 55 | 302 | 8.0 | 14.0 | 0.00 | 0.55 | 0.00 | 83 | 1013.2 |
| 20260505110503 | 56 | 303 | 9.0 | 14.0 | 0.00 | 0.56 | 0.00 | 81 | 1013.0 |